Home > Weather > Ashdod > Past weeks

Flag for Israel Weather for the Past 2 Weeks in Ashdod, Israel

Now
70 °F

Sunny.


Feels Like: 70 °F
Forecast: 64 / 78 °F
Wind: 7 mph from North

Location: Ben Gurion International Airport

Current Time: Apr 29, 2016 at 8:03:39 PM

Latest Report: Apr 29, 2016 at 7:20 PM


Visibility: 10 mi

Pressure: 29.98 "Hg

Humidity: 69%

Dew Point: 59 °F

Location of AshdodLocation

Historic Weather in Ashdod — Graph

°F

Ashdod Temperature Yesterday

Maximum temperature yesterday: 73 °F (at 12:20 PM)
Minimum temperature yesterday: 63 °F (at 4:50 AM)
Average temperature yesterday: 68 °F

High & Low Weather Summary for the Past Weeks

 TemperatureHumidityPressure
High104 °F (Apr 26, 2:50 PM)94% (Apr 19, 3:20 AM)30.12 "Hg (Apr 19, 3:20 AM)
Low55 °F (Apr 18, 5:20 AM)7% (Apr 20, 11:20 AM)29.56 "Hg (Apr 25, 12:50 AM)
Average73 °F52%29.93 "Hg
* Reported Apr 14 6:20 PM — Apr 29 6:50 PM, Ashdod, Weather by CustomWeather, © 2016

Note: Actual official high and low records may vary slightly from our data, if they occured in-between our weather recording intervals... More about our weather records

Advertising

Ashdod Weather History for the Previous 24 Hours

Scroll right to see more
 ConditionsComfort  
Time TempWeatherWind HumidityBarometerVisibility
6:50 PM
Fri, Apr 29
70 °FSunny.9 mph69%29.98 "Hg10 mi
6:20 PM72 °FSunny.10 mph65%29.98 "Hg10 mi
5:50 PM72 °FSunny.12 mph61%29.98 "Hg10 mi
5:20 PM73 °FSunny.9 mph57%29.98 "Hg10 mi
4:50 PM73 °FSunny.12 mph57%29.98 "Hg10 mi
4:20 PM73 °FSunny.13 mph57%29.98 "Hg10 mi
3:50 PM73 °FSunny.13 mph57%29.98 "Hg10 mi
3:20 PM73 °FSunny.14 mph57%29.98 "Hg10 mi
2:50 PM73 °FPassing clouds.14 mph57%30.01 "HgN/A
2:20 PM73 °FPassing clouds.12 mph53%29.98 "HgN/A
1:50 PM73 °FPassing clouds.13 mph53%30.01 "HgN/A
1:20 PM73 °FPassing clouds.12 mph53%30.01 "HgN/A
12:50 PM73 °FPassing clouds.10 mph53%30.01 "HgN/A
12:20 PM73 °FPassing clouds.10 mph53%30.01 "HgN/A
11:50 AM73 °FPassing clouds.9 mph53%30.01 "HgN/A
11:20 AM73 °FPassing clouds.9 mph53%30.01 "HgN/A
10:50 AM73 °FPassing clouds.7 mph53%30.04 "HgN/A
10:20 AM72 °FPassing clouds.5 mph53%30.04 "HgN/A
9:50 AM72 °FPassing clouds.2 mph53%30.04 "HgN/A
9:20 AM72 °FPassing clouds.2 mph53%30.04 "HgN/A
8:50 AM68 °FScattered clouds.3 mph60%30.04 "HgN/A
8:20 AM68 °FPassing clouds.3 mph60%30.04 "HgN/A
7:50 AM66 °FPassing clouds.3 mph64%30.04 "HgN/A
7:20 AM64 °FPassing clouds.2 mph68%30.01 "HgN/A
6:50 AM63 °FPassing clouds.2 mph73%30.01 "HgN/A
6:20 AM63 °FPassing clouds.2 mph73%30.01 "HgN/A
5:20 AM64 °FPassing clouds.8 mph68%30.01 "HgN/A
4:50 AM64 °FPassing clouds.3 mph68%29.98 "HgN/A
4:20 AM64 °FPassing clouds.3 mph68%30.01 "HgN/A
3:50 AM64 °FPassing clouds.3 mph64%30.01 "HgN/A
3:20 AM64 °FPassing clouds.6 mph64%29.98 "HgN/A
2:50 AM64 °FPassing clouds.5 mph68%29.98 "HgN/A
2:20 AM64 °FPassing clouds.3 mph68%29.98 "HgN/A
1:20 AM64 °FPassing clouds.5 mph64%29.98 "HgN/A
12:50 AM64 °FPassing clouds.6 mph64%30.01 "HgN/A
12:20 AM64 °FPassing clouds.5 mph64%30.01 "HgN/A
11:50 PM
Thu, Apr 28
64 °FPassing clouds.3 mph68%30.01 "HgN/A
11:20 PM64 °FPassing clouds.2 mph68%30.01 "HgN/A
10:50 PM64 °FPassing clouds.1 mph68%30.01 "HgN/A
10:20 PM64 °FPassing clouds.2 mph68%29.98 "HgN/A
9:50 PM66 °FPassing clouds.2 mph60%29.98 "HgN/A
9:20 PM66 °FPassing clouds.6 mph60%29.98 "HgN/A
8:50 PM66 °FPassing clouds.5 mph60%29.98 "HgN/A
8:20 PM68 °FPassing clouds.7 mph56%29.98 "HgN/A
Weather by CustomWeather, © 2016

See weather overviewHow to use our weather pages